Location: Anastacia Subdivision
(14.6701°N, 121.1192°E)
Time: 06:31:42
(UTC+00:00)

Daily predictions for brighter satellites

Satellite Brightness Start Highest point End
(mag) Time Altitude Azimuth Time Altitude Azimuth Time Altitude Azimuth
GPS 2-17 Rocket1 3.5 12:03:32 10° W 12:07:25 53° SW 12:07:25 53° SW
Delta 202 3.8 12:02:29 10° WNW 12:10:06 81° N 12:10:58 67° E
Cosmos 1656 4.1 12:05:57 10° NNW 12:11:24 58° WSW 12:13:17 39° SSW
Ariane H10 4.2 12:07:16 10° SW 12:47:12 - E 12:11:18 36° SSE
Meteor 1-20 Rocket 4.1 12:15:34 69° S 12:16:21 90° ENE 12:22:11 10° N
ATLAS 5 CENTAUR R/B 2.3 12:12:34 10° SW 12:38:23 - ENE 12:14:56 41° SSW
Cosmos 1980 Rocket 3.7 12:11:41 10° N 12:14:09 22° NNE 12:14:09 22° NNE
Ariane Rocket 3.8 12:27:26 42° WSW 12:28:04 44° W 12:32:51 10° NNW
Cosmos 1697 Rocket 2.9 12:23:26 10° NNW 12:28:08 64° NNW 12:28:08 64° NNW
CZ-3B R/B 4.4 12:28:14 10° W 12:32:33 60° SSW 12:32:33 60° SSW
Cosmos 1605 Rocket 4.4 12:44:38 59° WNW 12:44:38 59° WNW 12:50:17 10° N
Centaur D AC-29 4.5 12:42:14 10° WSW 12:51:04 78° NNW 22:45:28 10° SE
CZ-3A R/B 3.6 12:27:14 10° WNW 12:56:25 74° NNE 12:57:29 69° NE
ATLAS 3B R/B 4.0 13:09:09 10° SW 13:15:05 34° WNW 13:20:56 10° N
CZ-3A R/B 4.4 18:31:19 46° NNE 18:31:19 46° NNE 18:49:13 10° ENE
ATLAS 2AS CENTAUR R/B 4.2 18:57:22 30° SE 18:59:09 33° ESE 19:06:02 10° NE
Chandra Rocket (1) 4.2 19:03:00 67° SSW 19:04:35 74° SSE 19:10:57 10° ENE
Cosmos 2278 Rocket 3.3 19:11:16 39° E 19:11:16 39° E 19:16:00 10° NE
Hubble Space Telescope 3.9 19:16:06 10° NNE 19:16:06 10° NNE 19:16:06 10° NNE
Cosmos 2315 Rocket 4.3 19:15:40 62° E 19:15:40 62° E 19:21:40 10° NNE
Centaur D-1AR AC-40 4.2 19:15:19 50° SSW 19:15:36 50° S 20:11:50 10° ESE
Centaur D-1AR AC-40 4.2 19:15:19 50° SSW 19:15:37 50° S 20:11:51 10° ESE
SeaSat 1 3.5 19:17:42 10° NNE 19:21:02 41° NE 19:21:02 41° NE
Cosmos 1455 4.4 19:30:31 24° ENE 19:30:31 24° ENE 19:33:08 10° NE
ARIANE 5 R/B 3.6 19:31:13 43° S 19:31:48 44° S 19:58:04 10° ESE
ARIANE 5 R/B 3.6 19:31:14 43° S 19:31:48 44° S 19:58:04 10° ESE
ARIANE 5 R/B 3.6 19:31:13 43° S 19:31:48 44° S 19:58:03 10° ESE
ERS-2 4.4 19:33:55 22° E 19:34:17 23° ENE 19:37:10 10° NNE
CZ-2C R/B 2.9 19:30:50 10° NNE 19:34:46 55° ENE 19:34:46 55° ENE
Cosmos 1386 Rocket 4.3 19:30:16 10° N 19:36:02 83° NNW 19:36:02 83° NNW
ALOS 4.4 19:43:31 10° NE 19:47:13 23° E 19:50:54 10° SSE
Cosmos 1400 Rocket 3.8 19:48:19 44° E 19:48:19 44° E 19:51:49 10° NNE
Lacrosse 5 rocket 3.9 20:00:52 13° NNW 20:00:52 13° NNW 20:01:44 10° NNW
CZ-4B R/B 4.5 19:59:43 10° ESE 20:01:48 16° ENE 20:03:51 10° NE
GPS 2-12 Rocket1 3.6 20:03:07 45° NW 20:03:48 49° N 20:08:25 10° ENE
PAYLOAD A 4.4 20:00:37 10° N 20:04:49 42° NW 20:04:49 42° NW
Cosmos 1745 Rocket 4.5 20:01:10 10° NNW 20:06:02 37° WNW 20:06:02 37° WNW
deb Chang Zheng 4 3.4 20:04:58 10° N 20:09:16 66° WNW 20:09:30 65° W
Cosmos 1812 Rocket 3.4 20:12:17 60° W 20:12:20 60° W 20:16:35 10° N
FENGYUN 3A 4.3 20:07:40 10° NNE 20:12:55 55° ESE 20:18:08 10° S
ATLAS 2A CENTAUR R/B 0.8 20:14:01 85° NNW 20:14:04 86° NNE 20:20:09 10° ESE
COSMOS 2455 4.4 20:13:25 10° S 20:18:45 34° ESE 20:24:05 10° NE
USA 281 3.5 20:16:25 10° N 20:22:36 46° WNW 20:25:46 27° WSW
Cosmos 1408 4.1 20:20:34 10° NNE 20:24:00 38° E 20:27:24 10° SSE
GPS 2-14 Rocket1 2.4 20:23:58 56° WSW 20:24:42 88° SSE 20:28:28 10° ENE
H-2A R/B 3.0 20:27:20 27° WNW 20:27:20 27° WNW 20:29:44 10° NW
NOSS 3-4 (A) 3.8 20:24:29 31° WSW 20:26:17 39° WNW 20:31:47 10° N
NOSS 3-4 (C) 3.8 20:24:34 31° WSW 20:26:25 40° WNW 20:31:56 10° N
ADEOS 3.7 20:21:57 10° N 20:26:59 53° WNW 20:29:59 24° SW
BREEZE-M DEB (TANK) 3.9 20:30:17 16° S 20:31:23 21° SE 20:33:11 10° ENE
ATLAS 3B CENTAUR R/B 2.6 20:19:57 10° WNW 20:31:25 80° SSW 20:36:14 10° ESE
METEOR-M 4.2 20:28:12 10° NNE 20:33:33 79° ESE 20:38:53 10° S
Cosmos 1624 Rocket 4.4 20:31:48 10° S 20:36:59 63° ESE 20:42:08 10° NNE
Cosmos 1892 2.6 20:34:15 10° NNW 20:37:59 60° W 20:41:41 10° S
Cosmos 2058 2.8 20:36:30 10° N 20:40:40 70° W 20:44:50 10° S
Meteor PRIRODA 4.5 20:37:36 10° NNE 20:41:14 51° E 20:44:51 10° S
SWIFT 3.1 20:43:23 19° WNW 20:46:04 43° N 20:50:04 10° ENE
RESURS DK-1 3.3 20:44:01 10° S 20:47:59 48° ESE 20:51:56 10° NNE
ATLAS 2AS CENTAUR R/B 3.7 20:44:52 18° WSW 20:49:53 36° WNW 20:57:04 10° N
Meteor 1-31 Rocket 3.2 20:47:21 10° N 20:50:54 39° WNW 20:54:13 11° SW
Cosmos-2242 3.3 20:47:40 10° SSW 20:51:50 46° W 20:56:02 10° N
Cosmos 1484 Rocket 3.4 20:48:59 10° NNW 20:52:23 33° WNW 20:55:19 13° SW
Cosmos 2278 Rocket 3.8 20:53:10 14° W 20:54:46 16° WNW 20:58:03 10° NNW
Hubble Space Telescope 3.3 20:54:11 10° NNW 20:56:45 16° NNE 20:59:19 10° NE
Cosmos 2251 Rocket 4.0 20:56:23 10° N 21:01:43 69° ENE 21:07:03 10° SSE
Nadezhda 1 Rocket 4.2 20:57:21 10° SSW 21:03:33 53° W 21:09:45 10° N
USA 81 4.0 20:58:45 10° N 21:04:02 86° W 21:09:18 10° S
H-2A R/B 2.8 21:01:05 10° NNE 21:04:54 63° ESE 21:08:47 10° S
Meteor 2-17 Rocket 4.4 20:59:14 10° N 21:05:22 76° W 21:11:29 10° S
Cosmos 1825 2.1 21:06:55 10° NNW 21:10:35 60° W 21:14:17 10° S
Cosmos 2154 Rocket 4.4 21:05:12 10° N 21:11:29 70° E 21:17:42 10° S
Cosmos 2369 Rocket 3.9 21:09:27 10° S 21:14:31 36° ESE 21:19:33 10° NE
SAR-Lupe-4 4.5 21:11:43 10° SSW 21:14:46 27° W 21:17:49 10° NW
Cosmos 1833 Rocket 3.9 21:10:42 10° N 21:16:07 49° ENE 21:21:33 10° SSE
Cosmos 1943 Rocket 2.6 21:13:06 10° S 21:18:42 71° ESE 21:24:20 10° NNE
Cosmos 1867 3.8 21:14:35 10° NNW 21:20:00 78° ENE 21:25:24 10° SSE
ADEOS Rocket 3.6 21:13:01 10° S 21:20:17 61° WSW 21:27:56 10° NNW
